Location: Bidwell Hollow
(37.7387°N, 90.1707°W)
Time: 09:22:28
(UTC+00:00)

Envisat - Pass Details

Date: 07 October 2024
Orbit: 762 x 763 km, 98.3° (Epoch: 03 November)

Event Time Altitude Azimuth Distance (km) Brightness Sun altitude
Rises 10:16:35 0° 356° (N) 3,232 6.3 -21.6°
Reaches altitude 10° 10:19:25 10° 340° (NNW) 2,302 5.4 -21.1°
Enters shadow 10:20:55 16° 325° (NW) 1,931 4.8 -20.8°
